Location: Valdosta
(30.8330°N, 83.2790°W)
Time: 05:54:40
(UTC-05:00)

Daily predictions for brighter satellites

Satellite Brightness Start Highest point End
(mag) Time Altitude Azimuth Time Altitude Azimuth Time Altitude Azimuth
Cosmos 2333 Rocket 3.1 04:50:14 47° E 04:50:14 47° E 04:54:58 10° SE
Thor Agena Rocket 4.4 04:51:12 10° SE 04:55:57 47° E 04:55:57 47° E
NOSS 0 Rocket 4.0 05:04:11 71° NE 05:04:22 72° ENE 05:10:29 10° SSE
Cosmos 2219 Rocket 2.8 05:11:11 45° S 05:11:11 45° S 05:14:59 10° SSE
Cosmos 371 Rocket 3.5 05:21:06 66° SE 05:21:06 66° SE 05:25:20 10° SSE
Cosmos 968 Rocket 4.3 05:19:05 10° S 05:24:08 51° ESE 05:29:13 10° NNE
Cosmos 1066 4.5 05:29:12 71° WSW 05:29:12 71° WSW 05:34:24 10° S
NOAA 6 4.0 05:24:39 10° NNE 05:29:52 85° ESE 05:35:03 10° SSW
SWIFT 4.3 05:31:09 20° S 05:31:10 20° S 05:34:14 10° SE
Cosmos 2237 Rocket 2.0 05:36:10 50° NNW 05:37:43 79° WSW 05:43:24 10° SSE
CZ-3 R/B 3.8 05:30:34 30° W 05:37:44 38° SW 05:45:22 10° SSE
USA 229 DEB 4.4 05:33:34 16° NNW 05:39:14 53° ENE 05:46:16 10° SE
USA 229 4.5 05:33:38 16° NNW 05:39:19 52° ENE 05:46:21 10° SE
SL-16 R/B 3.3 05:35:43 10° N 05:41:00 43° ENE 05:46:21 10° SE
Tsikada Rocket 3.9 05:36:52 10° N 05:43:15 82° W 05:49:31 10° S
GPS 2-05 Rocket1 3.8 05:44:52 41° ENE 05:44:52 41° ENE 05:47:10 10° ENE
Cosmos 2297 Rocket 3.4 05:46:57 26° NNW 05:46:57 26° NNW 05:49:49 10° N
Tiangong 2 4.1 05:46:45 10° S 05:48:24 13° SE 05:50:02 10° ESE
Cosmos 220 Rocket 3.9 05:45:23 10° SSW 05:49:48 75° WNW 05:54:13 10° NNE
ATLAS 2A CENTAUR R/B 4.4 05:37:12 27° W 05:51:06 71° S 05:56:52 10° ESE
DELTA 2 R/B (1) 3.8 05:49:48 25° SW 05:53:00 67° SSE 05:58:30 10° ENE
Cosmos 2227 Rocket 4.1 06:00:39 13° NNW 06:00:39 13° NNW 06:01:23 10° NNW
Meteor 1-16 Rocket 4.3 05:53:12 10° S 05:58:42 76° E 06:04:04 10° NNE
Aureole 2 Rocket 2.9 05:57:16 22° N 05:59:56 78° ENE 06:04:01 10° SSE
Cosmos 1271 Rocket 3.5 05:56:36 10° S 06:00:21 52° E 06:04:04 10° NNE
Cosmos 540 Rocket 3.4 05:58:35 27° NNW 06:01:18 64° WSW 06:06:20 10° S
Cosmos 1725 Rocket 4.5 05:58:36 10° SW 06:04:11 35° W 06:09:51 10° NNW
OAO 2 Rocket 3.6 06:04:02 35° NW 06:05:45 51° N 06:10:33 10° ENE
SKYMED 2 3.4 06:01:30 10° S 06:05:49 76° WSW 06:09:51 12° NNW
Meteor 1-28 Rocket 3.6 06:02:15 10° SSE 06:05:58 61° ENE 06:09:41 10° N
ISS -0.6 06:06:15 10° N 06:07:37 12° NNE 06:08:58 10° ENE
IDEFIX/ARIANE 42P 4.4 06:03:01 10° NE 06:07:45 33° E 06:12:27 10° SSE
SL-14 R/B 4.2 06:05:27 10° N 06:09:26 52° E 06:13:22 10° SSE
Meteor 1-4 Rocket 2.7 06:05:58 10° SSW 06:09:31 49° W 06:13:09 10° N
Cosmos 304 Rocket 4.0 06:05:31 10° N 06:10:18 70° ENE 06:15:02 10° SSE
CZ-4 R/B 2.5 06:19:00 10° NNE 06:22:56 47° E 06:26:54 10° S
Cosmos 1674 4.1 06:24:03 21° WSW 06:24:03 21° WSW 06:26:24 10° SW
Cosmos 1538 Rocket 4.5 06:18:45 10° N 06:24:06 64° ENE 06:29:23 10° SSE
Aureole 1 4.2 06:21:10 10° SSW 06:24:09 81° ESE 06:27:19 10° NNE
PSLV R/B 4.1 06:29:54 24° WNW 06:31:13 33° NNW 06:34:18 10° NE
Cosmos 2333 Rocket 3.6 06:32:19 16° W 06:33:11 16° W 06:36:38 10° SW
Cosmos 2221 2.4 06:28:55 10° S 06:33:16 79° W 06:37:36 10° N
Ariane Rocket 3.3 06:32:01 10° N 06:36:49 43° WNW 06:41:37 10° SW
Cosmos 1461 4.4 06:40:27 15° W 06:41:48 17° WSW 06:44:31 10° SSW
CSL-04 Debris 4.2 06:36:51 10° N 06:42:14 59° WNW 06:47:34 10° SSW
Cosmos 1603 4.5 06:39:20 10° N 06:44:51 53° ENE 06:50:21 10° SE
Cosmos 389 Rocket 4.2 06:42:41 10° SSE 06:46:06 39° E 06:49:33 10° NNE
Cosmos 2263 Rocket 3.5 06:42:26 10° S 06:47:45 45° ESE 06:53:07 10° NE
COSMO-SKYMED 1 4.0 06:50:52 10° SW 06:53:57 19° W 06:57:03 10° NW
Cosmos 2228 Rocket 4.5 06:50:10 10° SSE 06:54:23 43° E 06:58:35 10° NNE
AQUARIUS 4.1 06:51:33 10° N 06:56:04 83° WNW 07:00:32 10° SSW
Cosmos 2058 3.1 06:52:13 10° NNW 06:56:12 49° W 07:00:12 10° SSW
PAYLOAD A 4.4 06:59:42 10° N 07:04:18 38° WNW 07:08:44 10° SW
CZ-2C R/B 2.3 07:02:06 10° N 07:06:34 54° WNW 07:11:00 10° SSW
EP 2 4.1 07:04:49 10° SW 07:07:33 71° WNW 07:10:09 10° NNE
Helios 1B rocket 3.0 07:04:55 10° SSE 07:08:57 61° ENE 07:13:00 10° N
Cosmos 1805 Rocket 3.6 07:05:31 10° NNW 07:09:53 64° W 07:14:12 10° S
Cosmos 2034 Rocket 4.2 07:06:07 10° SSW 07:12:05 52° W 07:18:08 10° N
Gbstr 26 Del rocket 4.0 07:07:06 10° SW 07:12:21 79° SE 07:18:57 10° NE
